Regional Weather Roundup
Issued by NWS

Home | Current Version | Previous Version | Text Only | Print | Product List | Glossary Off
Versions: 1 2 3 4 5 6 7 8 9 10 11 12 13 14 15 16 17 18 19 20 21 22 23 24 25 26 27 28 29 30 31 32 33 34 35 36 37 38 39 40 41 42 43 44 45 46 47 48 49 50

000
ASUS43 KLMK 170210
RWRKY
KENTUCKY REGIONAL WEATHER ROUNDUP
NATIONAL WEATHER SERVICE LOUISVILLE KY
1000 PM EDT MON OCT 16 2017

NOTE "FAIR" INDICATES FEW OR NO CLOUDS BELOW 12,000 FEET
WITH NO SIGNIFICANT WEATHER AND/OR OBSTRUCTIONS TO VISIBILITY.

KYZ001>023-026-027-061>063-070>075-170300-
WESTERN AND SOUTH CENTRAL KENTUCKY

CITY           SKY/WX    TMP DP  RH WIND       PRES   REMARKS
PADUCAH        CLEAR     46  40  79 CALM      30.32R
HENDERSON      CLEAR     45  42  89 CALM      30.33R
OWENSBORO      CLEAR     50  41  71 CALM      30.33R
HOPKINSVILLE   CLEAR     51  40  65 N3        30.31R HAZE
BOWLING GREEN  CLEAR     48  44  86 NE3       30.32R
GLASGOW        CLEAR     45  45  98 CALM      30.32R
$$

KYZ024-025-028>034-038-045-046-053-170300-
NORTH CENTRAL KENTUCKY

CITY           SKY/WX    TMP DP  RH WIND       PRES   REMARKS
LOUISVILLE/SDF CLEAR     55  42  61 CALM      30.32R
LOUISVILLE/LOU CLEAR     48  43  82 CALM      30.33R
FORT KNOX      CLEAR     45  40  83 CALM      30.31R
$$

KYZ035>037-039>044-047>052-055>060-089>105-170300-
NORTHEAST KENTUCKY

CITY           SKY/WX    TMP DP  RH WIND       PRES   REMARKS
LEXINGTON      CLEAR     49  41  74 CALM      30.32R
COVINGTON      CLEAR     47  40  76 CALM      30.31R
FRANKFORT      CLEAR     46  40  79 CALM      30.31R
$$

KYZ054-064>069-076>088-106>120-170300-
SOUTHEAST KENTUCKY

CITY           SKY/WX    TMP DP  RH WIND       PRES   REMARKS
JACKSON        CLEAR     50  39  66 CALM      30.31R
LONDON         CLEAR     47  42  83 N3        30.31R
SOMERSET       CLEAR     45  41  87 CALM      30.33R
MIDDLESBORO    CLEAR     46  44  94 CALM      30.32R
MONTICELLO     CLEAR     42  41  96 CALM      30.34R
$$





USA.gov is the U.S. government's official web portal to all federal, state and local government web resources and services.